iso_date,epoch_date,Year,Hour,Min,DOY,POS_DOY,Lat,Lon,BP,Ts,Ta,has_bp,has_ts,has_ta,BuoyID,Buoy_Type,Buoy_Owner,Logistics,Hemisphere
2017-01-10T10:32:09Z,1484044330,2017,10,32,10.439,10.439,-71.3044,-13.8578,997.6,1.8,-999.0,yes,yes,no,300234062880940,SVP,AWI-USIABP,unknown,South
2017-01-10T10:49:26Z,1484045366,2017,10,49,10.451,10.451,-71.3028,-13.8706,999.0,3.8,-999.0,yes,yes,no,300234062880940,SVP,AWI-USIABP,unknown,South
2017-01-10T10:59:31Z,1484045971,2017,11,0,10.458,10.458,-71.3036,-13.8768,998.8,1.6,-999.0,yes,yes,no,300234062880940,SVP,AWI-USIABP,unknown,South
2017-01-10T12:00:00Z,1484049600,2017,12,0,10.5,10.5,-71.3076,-13.9086,999.0,0.8,-999.0,yes,yes,no,300234062880940,SVP,AWI-USIABP,unknown,South
2017-01-10T13:00:28Z,1484053229,2017,13,0,10.542,10.542,-71.313,-13.9404,999.3,2.8,-999.0,yes,yes,no,300234062880940,SVP,AWI-USIABP,unknown,South
2017-01-10T13:59:31Z,1484056771,2017,14,0,10.583,10.583,-71.3194,-13.9686,999.4,9.8,-999.0,yes,yes,no,300234062880940,SVP,AWI-USIABP,unknown,South
2017-01-10T15:00:00Z,1484060400,2017,15,0,10.625,10.625,-71.3258,-13.994,999.5,6.2,-999.0,yes,yes,no,300234062880940,SVP,AWI-USIABP,unknown,South
2017-01-10T16:00:28Z,1484064029,2017,16,0,10.667,10.667,-71.3322,-14.0172,999.7,8.7,-999.0,yes,yes,no,300234062880940,SVP,AWI-USIABP,unknown,South
2017-01-10T16:59:31Z,1484067571,2017,17,0,10.708,10.708,-71.3376,-14.0376,999.9,8.6,-999.0,yes,yes,no,300234062880940,SVP,AWI-USIABP,unknown,South
2017-01-10T18:00:00Z,1484071200,2017,18,0,10.75,10.75,-71.3418,-14.057,1000.2,8.1,-999.0,yes,yes,no,300234062880940,SVP,AWI-USIABP,unknown,South
2017-01-10T19:00:28Z,1484074829,2017,19,0,10.792,10.792,-71.3446,-14.0794,1000.5,5.0,-999.0,yes,yes,no,300234062880940,SVP,AWI-USIABP,unknown,South
2017-01-10T19:59:31Z,1484078371,2017,20,0,10.833,10.833,-71.3468,-14.104,1000.7,0.7,-999.0,yes,yes,no,300234062880940,SVP,AWI-USIABP,unknown,South
2017-01-10T21:00:00Z,1484082000,2017,21,0,10.875,10.875,-71.3492,-14.1288,1000.9,-0.2,-999.0,yes,yes,no,300234062880940,SVP,AWI-USIABP,unknown,South
2017-01-10T22:00:28Z,1484085629,2017,22,0,10.917,10.917,-71.3524,-14.153,1001.2,-1.1,-999.0,yes,yes,no,300234062880940,SVP,AWI-USIABP,unknown,South
2017-01-10T22:59:31Z,1484089171,2017,23,0,10.958,10.958,-71.3568,-14.1748,1001.3,-1.8,-999.0,yes,yes,no,300234062880940,SVP,AWI-USIABP,unknown,South
2017-01-11T00:00:00Z,1484092800,2017,0,0,11.0,11.0,-71.3634,-14.1938,1001.5,-2.0,-999.0,yes,yes,no,300234062880940,SVP,AWI-USIABP,unknown,South
2017-01-11T01:00:28Z,1484096429,2017,1,0,11.042,11.042,-71.3704,-14.2072,1001.7,-2.4,-999.0,yes,yes,no,300234062880940,SVP,AWI-USIABP,unknown,South
2017-01-11T01:59:31Z,1484099971,2017,2,0,11.083,11.083,-71.3754,-14.217,1001.8,-3.2,-999.0,yes,yes,no,300234062880940,SVP,AWI-USIABP,unknown,South
2017-01-11T03:00:00Z,1484103600,2017,3,0,11.125,11.125,-71.3804,-14.2204,1001.9,-2.9,-999.0,yes,yes,no,300234062880940,SVP,AWI-USIABP,unknown,South
2017-01-11T04:00:28Z,1484107229,2017,4,0,11.167,11.167,-71.383,-14.2234,1001.9,-2.8,-999.0,yes,yes,no,300234062880940,SVP,AWI-USIABP,unknown,South
2017-01-11T04:59:31Z,1484110771,2017,5,0,11.208,11.208,-71.3846,-14.2318,1001.8,-1.3,-999.0,yes,yes,no,300234062880940,SVP,AWI-USIABP,unknown,South
2017-01-11T06:00:00Z,1484114400,2017,6,0,11.25,11.25,-71.3864,-14.2438,1001.8,-0.9,-999.0,yes,yes,no,300234062880940,SVP,AWI-USIABP,unknown,South
2017-01-11T07:00:28Z,1484118029,2017,7,0,11.292,11.292,-71.388,-14.257,1001.9,1.2,-999.0,yes,yes,no,300234062880940,SVP,AWI-USIABP,unknown,South
2017-01-11T07:59:31Z,1484121571,2017,8,0,11.333,11.333,-71.3898,-14.2706,1002.0,1.5,-999.0,yes,yes,no,300234062880940,SVP,AWI-USIABP,unknown,South
2017-01-11T09:00:00Z,1484125200,2017,9,0,11.375,11.375,-71.3916,-14.2848,1002.2,0.8,-999.0,yes,yes,no,300234062880940,SVP,AWI-USIABP,unknown,South
2017-01-11T10:00:28Z,1484128829,2017,10,0,11.417,11.417,-71.3944,-14.2982,1002.2,2.3,-999.0,yes,yes,no,300234062880940,SVP,AWI-USIABP,unknown,South
2017-01-11T10:59:31Z,1484132371,2017,11,0,11.458,11.458,-71.3982,-14.3096,1002.3,5.4,-999.0,yes,yes,no,300234062880940,SVP,AWI-USIABP,unknown,South
2017-01-11T12:00:00Z,1484136000,2017,12,0,11.5,11.5,-71.4004,-14.316,1002.3,9.8,-999.0,yes,yes,no,300234062880940,SVP,AWI-USIABP,unknown,South
2017-01-11T13:00:28Z,1484139629,2017,13,0,11.542,11.542,-71.4018,-14.3204,1002.3,17.3,-999.0,yes,yes,no,300234062880940,SVP,AWI-USIABP,unknown,South
2017-01-11T13:59:31Z,1484143171,2017,14,0,11.583,11.583,-71.4038,-14.3256,1002.2,18.1,-999.0,yes,yes,no,300234062880940,SVP,AWI-USIABP,unknown,South
2017-01-11T15:00:00Z,1484146800,2017,15,0,11.625,11.625,-71.4056,-14.3324,1002.3,16.8,-999.0,yes,yes,no,300234062880940,SVP,AWI-USIABP,unknown,South
2017-01-11T16:00:28Z,1484150429,2017,16,0,11.667,11.667,-71.4072,-14.3414,1002.1,17.0,-999.0,yes,yes,no,300234062880940,SVP,AWI-USIABP,unknown,South
2017-01-11T16:59:31Z,1484153971,2017,17,0,11.708,11.708,-71.4094,-14.3522,1002.0,12.2,-999.0,yes,yes,no,300234062880940,SVP,AWI-USIABP,unknown,South
2017-01-11T18:00:00Z,1484157600,2017,18,0,11.75,11.75,-71.4122,-14.365,1002.0,12.5,-999.0,yes,yes,no,300234062880940,SVP,AWI-USIABP,unknown,South
2017-01-11T19:00:28Z,1484161229,2017,19,0,11.792,11.792,-71.4148,-14.3798,1001.9,14.3,-999.0,yes,yes,no,300234062880940,SVP,AWI-USIABP,unknown,South
2017-01-11T19:59:31Z,1484164771,2017,20,0,11.833,11.833,-71.4174,-14.3952,1001.9,14.9,-999.0,yes,yes,no,300234062880940,SVP,AWI-USIABP,unknown,South
2017-01-11T21:00:00Z,1484168400,2017,21,0,11.875,11.875,-71.4192,-14.4098,1001.9,13.3,-999.0,yes,yes,no,300234062880940,SVP,AWI-USIABP,unknown,South
2017-01-11T22:00:28Z,1484172029,2017,22,0,11.917,11.917,-71.4206,-14.423,1002.1,11.0,-999.0,yes,yes,no,300234062880940,SVP,AWI-USIABP,unknown,South
2017-01-11T22:59:31Z,1484175571,2017,23,0,11.958,11.958,-71.422,-14.435,1002.0,4.7,-999.0,yes,yes,no,300234062880940,SVP,AWI-USIABP,unknown,South
2017-01-12T00:00:00Z,1484179200,2017,0,0,12.0,12.0,-71.4238,-14.445,1001.9,3.4,-999.0,yes,yes,no,300234062880940,SVP,AWI-USIABP,unknown,South
2017-01-12T01:00:28Z,1484182829,2017,1,0,12.042,12.042,-71.426,-14.4534,1001.9,0.6,-999.0,yes,yes,no,300234062880940,SVP,AWI-USIABP,unknown,South
2017-01-12T01:59:31Z,1484186371,2017,2,0,12.083,12.083,-71.4284,-14.4606,1002.0,-1.4,-999.0,yes,yes,no,300234062880940,SVP,AWI-USIABP,unknown,South
2017-01-12T03:00:00Z,1484190000,2017,3,0,12.125,12.125,-71.4304,-14.468,1001.5,-1.6,-999.0,yes,yes,no,300234062880940,SVP,AWI-USIABP,unknown,South
2017-01-12T04:00:28Z,1484193629,2017,4,0,12.167,12.167,-71.432,-14.4744,1001.6,-0.9,-999.0,yes,yes,no,300234062880940,SVP,AWI-USIABP,unknown,South
2017-01-12T04:59:31Z,1484197171,2017,5,0,12.208,12.208,-71.434,-14.4826,1001.4,-0.4,-999.0,yes,yes,no,300234062880940,SVP,AWI-USIABP,unknown,South
2017-01-12T06:00:00Z,1484200800,2017,6,0,12.25,12.25,-71.4366,-14.494,1001.2,0.2,-999.0,yes,yes,no,300234062880940,SVP,AWI-USIABP,unknown,South
2017-01-12T07:00:28Z,1484204429,2017,7,0,12.292,12.292,-71.44,-14.5082,1001.2,0.8,-999.0,yes,yes,no,300234062880940,SVP,AWI-USIABP,unknown,South
2017-01-12T07:59:31Z,1484207971,2017,8,0,12.333,12.333,-71.444,-14.526,1001.3,1.4,-999.0,yes,yes,no,300234062880940,SVP,AWI-USIABP,unknown,South
2017-01-12T09:00:00Z,1484211600,2017,9,0,12.375,12.375,-71.448,-14.5448,1001.1,1.0,-999.0,yes,yes,no,300234062880940,SVP,AWI-USIABP,unknown,South
2017-01-12T10:00:28Z,1484215229,2017,10,0,12.417,12.417,-71.4526,-14.563,1000.9,1.8,-999.0,yes,yes,no,300234062880940,SVP,AWI-USIABP,unknown,South
2017-01-12T10:59:31Z,1484218771,2017,11,0,12.458,12.458,-71.4572,-14.579,1000.9,4.1,-999.0,yes,yes,no,300234062880940,SVP,AWI-USIABP,unknown,South
2017-01-12T12:00:00Z,1484222400,2017,12,0,12.5,12.5,-71.4616,-14.5936,1000.8,5.0,-999.0,yes,yes,no,300234062880940,SVP,AWI-USIABP,unknown,South
2017-01-12T13:00:28Z,1484226029,2017,13,0,12.542,12.542,-71.466,-14.608,1001.0,5.0,-999.0,yes,yes,no,300234062880940,SVP,AWI-USIABP,unknown,South
2017-01-12T13:59:31Z,1484229571,2017,14,0,12.583,12.583,-71.471,-14.6236,1000.8,4.1,-999.0,yes,yes,no,300234062880940,SVP,AWI-USIABP,unknown,South
2017-01-12T15:00:00Z,1484233200,2017,15,0,12.625,12.625,-71.4762,-14.6422,1000.6,4.7,-999.0,yes,yes,no,300234062880940,SVP,AWI-USIABP,unknown,South
2017-01-12T16:00:28Z,1484236829,2017,16,0,12.667,12.667,-71.4824,-14.6616,1000.5,4.7,-999.0,yes,yes,no,300234062880940,SVP,AWI-USIABP,unknown,South
2017-01-12T16:59:31Z,1484240371,2017,17,0,12.708,12.708,-71.4898,-14.6818,1000.2,2.8,-999.0,yes,yes,no,300234062880940,SVP,AWI-USIABP,unknown,South
2017-01-12T18:00:00Z,1484244000,2017,18,0,12.75,12.75,-71.4972,-14.7038,1000.1,1.4,-999.0,yes,yes,no,300234062880940,SVP,AWI-USIABP,unknown,South
2017-01-12T19:00:28Z,1484247629,2017,19,0,12.792,12.792,-71.5048,-14.7284,1000.0,0.8,-999.0,yes,yes,no,300234062880940,SVP,AWI-USIABP,unknown,South
2017-01-12T19:59:31Z,1484251171,2017,20,0,12.833,12.833,-71.5122,-14.7546,1000.0,0.1,-999.0,yes,yes,no,300234062880940,SVP,AWI-USIABP,unknown,South
2017-01-12T21:00:00Z,1484254800,2017,21,0,12.875,12.875,-71.5198,-14.7788,1000.1,-0.2,-999.0,yes,yes,no,300234062880940,SVP,AWI-USIABP,unknown,South
2017-01-12T22:00:28Z,1484258429,2017,22,0,12.917,12.917,-71.5272,-14.8,1000.0,-0.9,-999.0,yes,yes,no,300234062880940,SVP,AWI-USIABP,unknown,South
2017-01-12T22:59:31Z,1484261971,2017,23,0,12.958,12.958,-71.5342,-14.8196,1000.1,-1.1,-999.0,yes,yes,no,300234062880940,SVP,AWI-USIABP,unknown,South
2017-01-13T00:00:00Z,1484265600,2017,0,0,13.0,13.0,-71.541,-14.8402,1000.1,-1.3,-999.0,yes,yes,no,300234062880940,SVP,AWI-USIABP,unknown,South
2017-01-13T01:00:28Z,1484269229,2017,1,0,13.042,13.042,-71.5484,-14.8592,1000.1,-1.5,-999.0,yes,yes,no,300234062880940,SVP,AWI-USIABP,unknown,South
2017-01-13T01:59:31Z,1484272771,2017,2,0,13.083,13.083,-71.557,-14.879,1000.1,-2.1,-999.0,yes,yes,no,300234062880940,SVP,AWI-USIABP,unknown,South
2017-01-13T03:00:00Z,1484276400,2017,3,0,13.125,13.125,-71.5686,-14.9026,1000.0,-2.6,-999.0,yes,yes,no,300234062880940,SVP,AWI-USIABP,unknown,South
2017-01-13T04:00:28Z,1484280029,2017,4,0,13.167,13.167,-71.5806,-14.9274,1000.0,-2.7,-999.0,yes,yes,no,300234062880940,SVP,AWI-USIABP,unknown,South
2017-01-13T04:59:31Z,1484283571,2017,5,0,13.208,13.208,-71.593,-14.9552,999.8,-2.4,-999.0,yes,yes,no,300234062880940,SVP,AWI-USIABP,unknown,South
2017-01-13T06:00:00Z,1484287200,2017,6,0,13.25,13.25,-71.6056,-14.9838,999.7,-1.9,-999.0,yes,yes,no,300234062880940,SVP,AWI-USIABP,unknown,South
2017-01-13T07:00:28Z,1484290829,2017,7,0,13.292,13.292,-71.6178,-15.0146,999.6,-1.1,-999.0,yes,yes,no,300234062880940,SVP,AWI-USIABP,unknown,South
2017-01-13T07:59:31Z,1484294371,2017,8,0,13.333,13.333,-71.6306,-15.05,999.7,-0.5,-999.0,yes,yes,no,300234062880940,SVP,AWI-USIABP,unknown,South
2017-01-13T09:00:00Z,1484298000,2017,9,0,13.375,13.375,-71.6432,-15.087,999.9,-0.2,-999.0,yes,yes,no,300234062880940,SVP,AWI-USIABP,unknown,South
2017-01-13T10:00:28Z,1484301629,2017,10,0,13.417,13.417,-71.6558,-15.126,1000.0,0.2,-999.0,yes,yes,no,300234062880940,SVP,AWI-USIABP,unknown,South
2017-01-13T10:59:31Z,1484305171,2017,11,0,13.458,13.458,-71.6684,-15.1678,1000.2,-0.0,-999.0,yes,yes,no,300234062880940,SVP,AWI-USIABP,unknown,South
2017-01-13T12:00:00Z,1484308800,2017,12,0,13.5,13.5,-71.6818,-15.2116,1000.1,0.0,-999.0,yes,yes,no,300234062880940,SVP,AWI-USIABP,unknown,South
2017-01-13T13:00:28Z,1484312429,2017,13,0,13.542,13.542,-71.6954,-15.2564,1000.0,0.2,-999.0,yes,yes,no,300234062880940,SVP,AWI-USIABP,unknown,South
2017-01-13T13:59:31Z,1484315971,2017,14,0,13.583,13.583,-71.7102,-15.3028,1000.0,0.9,-999.0,yes,yes,no,300234062880940,SVP,AWI-USIABP,unknown,South
2017-01-13T15:00:00Z,1484319600,2017,15,0,13.625,13.625,-71.7266,-15.3484,1000.1,0.6,-999.0,yes,yes,no,300234062880940,SVP,AWI-USIABP,unknown,South
2017-01-13T16:00:28Z,1484323229,2017,16,0,13.667,13.667,-71.745,-15.3934,1000.4,0.4,-999.0,yes,yes,no,300234062880940,SVP,AWI-USIABP,unknown,South
2017-01-13T16:59:31Z,1484326771,2017,17,0,13.708,13.708,-71.767,-15.4316,1000.5,0.6,-999.0,yes,yes,no,300234062880940,SVP,AWI-USIABP,unknown,South
2017-01-13T18:00:00Z,1484330400,2017,18,0,13.75,13.75,-71.7914,-15.4576,1000.3,0.4,-999.0,yes,yes,no,300234062880940,SVP,AWI-USIABP,unknown,South
2017-01-13T19:00:28Z,1484334029,2017,19,0,13.792,13.792,-71.8156,-15.4744,1000.7,-0.0,-999.0,yes,yes,no,300234062880940,SVP,AWI-USIABP,unknown,South
2017-01-13T19:59:31Z,1484337571,2017,20,0,13.833,13.833,-71.8374,-15.487,1001.1,-0.6,-999.0,yes,yes,no,300234062880940,SVP,AWI-USIABP,unknown,South
2017-01-13T21:00:00Z,1484341200,2017,21,0,13.875,13.875,-71.8544,-15.5002,1001.3,-0.7,-999.0,yes,yes,no,300234062880940,SVP,AWI-USIABP,unknown,South
2017-01-13T22:00:28Z,1484344829,2017,22,0,13.917,13.917,-71.868,-15.5188,1001.4,-1.1,-999.0,yes,yes,no,300234062880940,SVP,AWI-USIABP,unknown,South
2017-01-13T22:59:31Z,1484348371,2017,23,0,13.958,13.958,-71.879,-15.5414,1001.4,-1.3,-999.0,yes,yes,no,300234062880940,SVP,AWI-USIABP,unknown,South
2017-01-14T00:00:00Z,1484352000,2017,0,0,14.0,14.0,-71.8886,-15.5668,1001.2,-1.5,-999.0,yes,yes,no,300234062880940,SVP,AWI-USIABP,unknown,South
2017-01-14T01:00:28Z,1484355629,2017,1,0,14.042,14.042,-71.8964,-15.5908,1000.9,-1.5,-999.0,yes,yes,no,300234062880940,SVP,AWI-USIABP,unknown,South
2017-01-14T01:59:31Z,1484359171,2017,2,0,14.083,14.083,-71.9028,-15.6142,1000.9,-1.7,-999.0,yes,yes,no,300234062880940,SVP,AWI-USIABP,unknown,South
2017-01-14T03:00:00Z,1484362800,2017,3,0,14.125,14.125,-71.9086,-15.638,1000.4,-1.6,-999.0,yes,yes,no,300234062880940,SVP,AWI-USIABP,unknown,South
2017-01-14T04:00:28Z,1484366429,2017,4,0,14.167,14.167,-71.9152,-15.663,1000.2,-1.7,-999.0,yes,yes,no,300234062880940,SVP,AWI-USIABP,unknown,South
2017-01-14T04:59:31Z,1484369971,2017,5,0,14.208,14.208,-71.9222,-15.6916,999.8,-1.5,-999.0,yes,yes,no,300234062880940,SVP,AWI-USIABP,unknown,South
2017-01-14T06:00:00Z,1484373600,2017,6,0,14.25,14.25,-71.9298,-15.7238,999.5,-1.4,-999.0,yes,yes,no,300234062880940,SVP,AWI-USIABP,unknown,South
2017-01-14T07:00:28Z,1484377229,2017,7,0,14.292,14.292,-71.9372,-15.7554,999.4,-1.2,-999.0,yes,yes,no,300234062880940,SVP,AWI-USIABP,unknown,South
2017-01-14T07:59:31Z,1484380771,2017,8,0,14.333,14.333,-71.9442,-15.7882,999.3,-0.5,-999.0,yes,yes,no,300234062880940,SVP,AWI-USIABP,unknown,South
2017-01-14T09:00:00Z,1484384400,2017,9,0,14.375,14.375,-71.9506,-15.8202,999.2,-0.0,-999.0,yes,yes,no,300234062880940,SVP,AWI-USIABP,unknown,South
2017-01-14T10:00:28Z,1484388029,2017,10,0,14.417,14.417,-71.9568,-15.8518,999.0,0.2,-999.0,yes,yes,no,300234062880940,SVP,AWI-USIABP,unknown,South
2017-01-14T10:59:31Z,1484391571,2017,11,0,14.458,14.458,-71.9622,-15.8818,998.9,0.8,-999.0,yes,yes,no,300234062880940,SVP,AWI-USIABP,unknown,South
2017-01-14T12:00:00Z,1484395200,2017,12,0,14.5,14.5,-71.9674,-15.9088,998.7,1.1,-999.0,yes,yes,no,300234062880940,SVP,AWI-USIABP,unknown,South
2017-01-14T13:00:28Z,1484398829,2017,13,0,14.542,14.542,-71.9714,-15.933,998.6,1.7,-999.0,yes,yes,no,300234062880940,SVP,AWI-USIABP,unknown,South
2017-01-14T13:59:31Z,1484402371,2017,14,0,14.583,14.583,-71.9748,-15.9572,998.3,2.5,-999.0,yes,yes,no,300234062880940,SVP,AWI-USIABP,unknown,South
2017-01-14T15:00:00Z,1484406000,2017,15,0,14.625,14.625,-71.9792,-15.9828,998.0,2.5,-999.0,yes,yes,no,300234062880940,SVP,AWI-USIABP,unknown,South
2017-01-14T16:00:28Z,1484409629,2017,16,0,14.667,14.667,-71.9844,-16.0092,997.7,2.4,-999.0,yes,yes,no,300234062880940,SVP,AWI-USIABP,unknown,South
2017-01-14T16:59:31Z,1484413171,2017,17,0,14.708,14.708,-71.9904,-16.0378,997.5,2.0,-999.0,yes,yes,no,300234062880940,SVP,AWI-USIABP,unknown,South
2017-01-14T18:00:00Z,1484416800,2017,18,0,14.75,14.75,-71.9968,-16.0676,997.4,2.0,-999.0,yes,yes,no,300234062880940,SVP,AWI-USIABP,unknown,South
2017-01-14T19:00:28Z,1484420429,2017,19,0,14.792,14.792,-72.0032,-16.0972,997.3,2.2,-999.0,yes,yes,no,300234062880940,SVP,AWI-USIABP,unknown,South
2017-01-14T19:59:31Z,1484423971,2017,20,0,14.833,14.833,-72.0094,-16.1262,997.2,1.3,-999.0,yes,yes,no,300234062880940,SVP,AWI-USIABP,unknown,South
2017-01-14T21:00:00Z,1484427600,2017,21,0,14.875,14.875,-72.0158,-16.1546,997.1,0.6,-999.0,yes,yes,no,300234062880940,SVP,AWI-USIABP,unknown,South
2017-01-14T22:00:28Z,1484431229,2017,22,0,14.917,14.917,-72.0212,-16.1838,996.7,0.3,-999.0,yes,yes,no,300234062880940,SVP,AWI-USIABP,unknown,South
2017-01-14T22:59:31Z,1484434771,2017,23,0,14.958,14.958,-72.027,-16.2132,996.9,0.2,-999.0,yes,yes,no,300234062880940,SVP,AWI-USIABP,unknown,South
2017-01-15T00:00:00Z,1484438400,2017,0,0,15.0,15.0,-72.0326,-16.2366,996.9,-0.0,-999.0,yes,yes,no,300234062880940,SVP,AWI-USIABP,unknown,South
2017-01-15T01:00:28Z,1484442029,2017,1,0,15.042,15.042,-72.0378,-16.255,996.7,-0.1,-999.0,yes,yes,no,300234062880940,SVP,AWI-USIABP,unknown,South
2017-01-15T01:59:31Z,1484445571,2017,2,0,15.083,15.083,-72.0432,-16.273,996.7,-0.2,-999.0,yes,yes,no,300234062880940,SVP,AWI-USIABP,unknown,South
2017-01-15T03:00:00Z,1484449200,2017,3,0,15.125,15.125,-72.0486,-16.2918,996.4,-0.2,-999.0,yes,yes,no,300234062880940,SVP,AWI-USIABP,unknown,South
2017-01-15T04:00:28Z,1484452829,2017,4,0,15.167,15.167,-72.0548,-16.312,996.4,-0.1,-999.0,yes,yes,no,300234062880940,SVP,AWI-USIABP,unknown,South
2017-01-15T04:59:31Z,1484456371,2017,5,0,15.208,15.208,-72.0618,-16.3342,996.4,-0.0,-999.0,yes,yes,no,300234062880940,SVP,AWI-USIABP,unknown,South
2017-01-15T06:00:00Z,1484460000,2017,6,0,15.25,15.25,-72.07,-16.3574,996.5,0.1,-999.0,yes,yes,no,300234062880940,SVP,AWI-USIABP,unknown,South
2017-01-15T07:00:28Z,1484463629,2017,7,0,15.292,15.292,-72.0794,-16.382,996.6,0.8,-999.0,yes,yes,no,300234062880940,SVP,AWI-USIABP,unknown,South
2017-01-15T07:59:31Z,1484467171,2017,8,0,15.333,15.333,-72.0898,-16.4068,996.6,1.4,-999.0,yes,yes,no,300234062880940,SVP,AWI-USIABP,unknown,South
2017-01-15T09:00:00Z,1484470800,2017,9,0,15.375,15.375,-72.101,-16.4306,996.7,2.6,-999.0,yes,yes,no,300234062880940,SVP,AWI-USIABP,unknown,South
2017-01-15T10:00:28Z,1484474429,2017,10,0,15.417,15.417,-72.1128,-16.452,997.0,3.1,-999.0,yes,yes,no,300234062880940,SVP,AWI-USIABP,unknown,South
2017-01-15T10:59:31Z,1484477971,2017,11,0,15.458,15.458,-72.1244,-16.47,997.1,4.3,-999.0,yes,yes,no,300234062880940,SVP,AWI-USIABP,unknown,South
2017-01-15T12:00:00Z,1484481600,2017,12,0,15.5,15.5,-72.1356,-16.4878,997.5,4.5,-999.0,yes,yes,no,300234062880940,SVP,AWI-USIABP,unknown,South
2017-01-15T13:00:28Z,1484485229,2017,13,0,15.542,15.542,-72.1466,-16.5042,997.6,4.6,-999.0,yes,yes,no,300234062880940,SVP,AWI-USIABP,unknown,South
2017-01-15T13:59:31Z,1484488771,2017,14,0,15.583,15.583,-72.1574,-16.5184,997.9,3.5,-999.0,yes,yes,no,300234062880940,SVP,AWI-USIABP,unknown,South
2017-01-15T15:00:00Z,1484492400,2017,15,0,15.625,15.625,-72.1682,-16.5378,998.2,3.2,-999.0,yes,yes,no,300234062880940,SVP,AWI-USIABP,unknown,South
2017-01-15T16:00:28Z,1484496029,2017,16,0,15.667,15.667,-72.1808,-16.5592,998.3,3.0,-999.0,yes,yes,no,300234062880940,SVP,AWI-USIABP,unknown,South
2017-01-15T16:59:31Z,1484499571,2017,17,0,15.708,15.708,-72.1946,-16.5814,998.6,4.0,-999.0,yes,yes,no,300234062880940,SVP,AWI-USIABP,unknown,South
2017-01-15T18:00:00Z,1484503200,2017,18,0,15.75,15.75,-72.2096,-16.611,998.8,2.5,-999.0,yes,yes,no,300234062880940,SVP,AWI-USIABP,unknown,South
2017-01-15T19:00:28Z,1484506829,2017,19,0,15.792,15.792,-72.225,-16.6426,999.1,2.2,-999.0,yes,yes,no,300234062880940,SVP,AWI-USIABP,unknown,South
2017-01-15T19:59:31Z,1484510371,2017,20,0,15.833,15.833,-72.242,-16.6818,999.5,1.4,-999.0,yes,yes,no,300234062880940,SVP,AWI-USIABP,unknown,South
2017-01-15T21:00:00Z,1484514000,2017,21,0,15.875,15.875,-72.2606,-16.7224,999.6,1.1,-999.0,yes,yes,no,300234062880940,SVP,AWI-USIABP,unknown,South
2017-01-15T22:00:28Z,1484517629,2017,22,0,15.917,15.917,-72.2758,-16.7612,999.9,1.0,-999.0,yes,yes,no,300234062880940,SVP,AWI-USIABP,unknown,South
2017-01-15T22:59:31Z,1484521171,2017,23,0,15.958,15.958,-72.2896,-16.8004,1000.2,0.5,-999.0,yes,yes,no,300234062880940,SVP,AWI-USIABP,unknown,South
2017-01-16T00:00:00Z,1484524800,2017,0,0,16.0,16.0,-72.3014,-16.836,1000.4,0.1,-999.0,yes,yes,no,300234062880940,SVP,AWI-USIABP,unknown,South
2017-01-16T01:00:28Z,1484528429,2017,1,0,16.042,16.042,-72.3122,-16.87,1000.8,-0.2,-999.0,yes,yes,no,300234062880940,SVP,AWI-USIABP,unknown,South
2017-01-16T01:59:31Z,1484531971,2017,2,0,16.083,16.083,-72.3222,-16.9028,1000.9,-0.2,-999.0,yes,yes,no,300234062880940,SVP,AWI-USIABP,unknown,South
2017-01-16T03:00:00Z,1484535600,2017,3,0,16.125,16.125,-72.331,-16.9366,1001.0,-0.2,-999.0,yes,yes,no,300234062880940,SVP,AWI-USIABP,unknown,South
2017-01-16T04:00:28Z,1484539229,2017,4,0,16.167,16.167,-72.339,-16.9704,1001.0,-0.1,-999.0,yes,yes,no,300234062880940,SVP,AWI-USIABP,unknown,South
2017-01-16T04:59:31Z,1484542771,2017,5,0,16.208,16.208,-72.3462,-17.003,1001.0,0.2,-999.0,yes,yes,no,300234062880940,SVP,AWI-USIABP,unknown,South
2017-01-16T06:00:00Z,1484546400,2017,6,0,16.25,16.25,-72.3526,-17.0376,1000.9,0.6,-999.0,yes,yes,no,300234062880940,SVP,AWI-USIABP,unknown,South
2017-01-16T07:00:28Z,1484550029,2017,7,0,16.292,16.292,-72.3584,-17.0756,1001.0,0.8,-999.0,yes,yes,no,300234062880940,SVP,AWI-USIABP,unknown,South
2017-01-16T07:59:31Z,1484553571,2017,8,0,16.333,16.333,-72.3628,-17.1146,1001.2,1.2,-999.0,yes,yes,no,300234062880940,SVP,AWI-USIABP,unknown,South
2017-01-16T09:00:00Z,1484557200,2017,9,0,16.375,16.375,-72.367,-17.1532,1001.4,1.6,-999.0,yes,yes,no,300234062880940,SVP,AWI-USIABP,unknown,South
2017-01-16T10:00:28Z,1484560829,2017,10,0,16.417,16.417,-72.371,-17.1908,1001.3,2.1,-999.0,yes,yes,no,300234062880940,SVP,AWI-USIABP,unknown,South
2017-01-16T10:59:31Z,1484564371,2017,11,0,16.458,16.458,-72.3748,-17.227,1001.3,4.2,-999.0,yes,yes,no,300234062880940,SVP,AWI-USIABP,unknown,South
2017-01-16T12:00:00Z,1484568000,2017,12,0,16.5,16.5,-72.3778,-17.2618,1001.4,5.9,-999.0,yes,yes,no,300234062880940,SVP,AWI-USIABP,unknown,South
2017-01-16T13:00:28Z,1484571629,2017,13,0,16.542,16.542,-72.3806,-17.295,1001.4,5.9,-999.0,yes,yes,no,300234062880940,SVP,AWI-USIABP,unknown,South
2017-01-16T13:59:31Z,1484575171,2017,14,0,16.583,16.583,-72.3834,-17.3264,1001.4,5.9,-999.0,yes,yes,no,300234062880940,SVP,AWI-USIABP,unknown,South
2017-01-16T15:00:00Z,1484578800,2017,15,0,16.625,16.625,-72.3858,-17.3564,1001.1,6.4,-999.0,yes,yes,no,300234062880940,SVP,AWI-USIABP,unknown,South
2017-01-16T16:00:28Z,1484582429,2017,16,0,16.667,16.667,-72.3872,-17.3844,1000.9,5.4,-999.0,yes,yes,no,300234062880940,SVP,AWI-USIABP,unknown,South
2017-01-16T16:59:31Z,1484585971,2017,17,0,16.708,16.708,-72.3882,-17.4114,1000.6,4.4,-999.0,yes,yes,no,300234062880940,SVP,AWI-USIABP,unknown,South
2017-01-16T18:00:00Z,1484589600,2017,18,0,16.75,16.75,-72.3888,-17.4378,1000.4,3.3,-999.0,yes,yes,no,300234062880940,SVP,AWI-USIABP,unknown,South
2017-01-16T19:00:28Z,1484593229,2017,19,0,16.792,16.792,-72.3892,-17.464,1000.2,2.6,-999.0,yes,yes,no,300234062880940,SVP,AWI-USIABP,unknown,South
2017-01-16T19:59:31Z,1484596771,2017,20,0,16.833,16.833,-72.3886,-17.4914,1000.2,3.8,-999.0,yes,yes,no,300234062880940,SVP,AWI-USIABP,unknown,South
2017-01-16T21:00:00Z,1484600400,2017,21,0,16.875,16.875,-72.388,-17.5222,999.8,3.4,-999.0,yes,yes,no,300234062880940,SVP,AWI-USIABP,unknown,South
2017-01-16T22:00:28Z,1484604029,2017,22,0,16.917,16.917,-72.387,-17.5526,999.6,2.5,-999.0,yes,yes,no,300234062880940,SVP,AWI-USIABP,unknown,South
2017-01-16T22:59:31Z,1484607571,2017,23,0,16.958,16.958,-72.3862,-17.581,999.5,1.5,-999.0,yes,yes,no,300234062880940,SVP,AWI-USIABP,unknown,South
2017-01-17T00:00:00Z,1484611200,2017,0,0,17.0,17.0,-72.3852,-17.6076,999.1,0.5,-999.0,yes,yes,no,300234062880940,SVP,AWI-USIABP,unknown,South
2017-01-17T01:00:28Z,1484614829,2017,1,0,17.042,17.042,-72.3836,-17.6316,998.9,0.2,-999.0,yes,yes,no,300234062880940,SVP,AWI-USIABP,unknown,South
2017-01-17T01:59:31Z,1484618371,2017,2,0,17.083,17.083,-72.3812,-17.653,998.5,-0.2,-999.0,yes,yes,no,300234062880940,SVP,AWI-USIABP,unknown,South